Flag for Germany Weather past 2 weeks in Alsfeld, Hesse, Germany

Now
57 °F

Overcast.


Feels Like: 57 °F
Forecast: 44 / 63 °F
Wind: 2 mph from West

Location: Fritzlar

Current Time: May 27, 2015 at 8:29:07 PM

Latest Report: May 27, 2015 at 7:00 PM


Visibility: 28 mi

Pressure: 30.19 "Hg

Humidity: 49%

Dew point: 38 °F

Location of AlsfeldLocation

Historic Weather in Alsfeld — Graph

°F

Alsfeld temperature yesterday

Maximum temperature yesterday: 56 °F (at 3:00 PM)
Minimum temperature yesterday: 47 °F (at 11:00 PM)
Average temperature yesterday: 51 °F

Past Weeks' High & Low Weather Summary

 TemperatureHumidityPressure
High70 °F (May 18, 6:00 PM)96% (May 25, 6:00 AM)30.36 "Hg (May 25, 6:00 AM)
Low38 °F (May 16, 5:00 AM)36% (May 22, 6:00 PM)29.65 "Hg (May 19, 3:00 AM)
Average53 °F67%30.07 "Hg
* Reported May 12 7:00 PM — May 27 7:00 PM, Alsfeld, Weather by CustomWeather, © 2015

Note: Actual official high and low records may vary slightly from our data, if they occured in-between our weather recording intervals... More about our weather records

Advertising

Alsfeld weather history for previous 24 hours

 ConditionsComfort  
Time TempWeatherWind HumidityBarometerVisibility
7:00 PM
Wed, May 27
57 °FOvercast.2 mph49%30.19 "Hg28 mi
6:00 PM57 °FOvercast.2 mph46%30.19 "Hg25 mi
5:00 PM56 °FOvercast.2 mph48%30.20 "Hg25 mi
4:00 PM57 °FOvercast.2 mph48%30.21 "Hg25 mi
3:00 PM56 °FOvercast.2 mph52%30.22 "Hg25 mi
2:00 PM55 °FOvercast.5 mph54%30.24 "Hg25 mi
1:00 PM54 °FOvercast.3 mph59%30.25 "Hg25 mi
12:00 PM52 °FOvercast.3 mph61%30.25 "Hg22 mi
11:00 AM53 °FOvercast.3 mph62%30.25 "Hg19 mi
10:00 AM51 °FOvercast.5 mph66%30.27 "Hg19 mi
9:00 AM49 °FOvercast.3 mph68%30.26 "Hg19 mi
8:00 AM49 °FOvercast.3 mph71%30.25 "Hg19 mi
7:00 AM47 °FOvercast.1 mph79%30.24 "Hg19 mi
6:00 AM46 °FOvercast.2 mph83%30.24 "Hg16 mi
5:00 AM46 °FOvercast.2 mph81%30.24 "Hg16 mi
4:00 AM46 °FOvercast.2 mph82%30.24 "Hg16 mi
3:00 AM45 °FOvercast.2 mph86%30.24 "Hg16 mi
2:00 AM47 °FPassing clouds.3 mph78%30.22 "Hg16 mi
1:00 AM46 °FPassing clouds.3 mph84%30.22 "Hg16 mi
12:00 AM47 °FOvercast.3 mph81%30.20 "Hg16 mi
11:00 PM
Tue, May 26
47 °FPassing clouds.2 mph83%30.19 "Hg19 mi
10:00 PM50 °FPassing clouds.2 mph72%30.19 "Hg19 mi
9:00 PM51 °FOvercast.No wind71%30.17 "Hg19 mi
8:00 PM51 °FOvercast.2 mph77%30.16 "Hg19 mi
Weather by CustomWeather, © 2015

See weather overviewHow to use our weather pages